Time[GMT],air_temperature[C](-3m),wind_speed[m/s](-4m),wind_gust[m/s](-4m),visibility[m](-3m),barometric_pressure[millibars](-3m),wind_2_direction[degrees_true](-4m),wind_2_gust[m/s](-4m),wind_2_percent_good[m/s](-4m),wind_2_speed[m/s](-4m),wind_direction[degrees_true](-4m)
2006-09-15 16:00,15.4,,,2960,1020.46,156.00,2.64,1.00,2.18,
2006-09-15 16:30,15.3,,,2960,1020.46,167.20,4.00,1.00,3.34,
2006-09-15 17:00,15.4,,,2960,1020.46,172.00,4.03,1.00,3.56,
2006-09-15 17:30,15.4,,,2960,1020.16,161.90,3.43,1.00,3.09,
2006-09-15 18:00,15.5,,,2960,1019.91,169.40,3.25,1.00,2.87,
2006-09-15 18:30,15.4,,,2960,1019.85,199.20,2.14,1.00,1.79,
2006-09-15 19:00,15.5,,,2960,1019.73,183.10,1.45,1.00,1.30,
2006-09-15 19:30,15.4,,,2956,1019.79,189.90,1.52,1.00,1.23,
2006-09-15 20:00,15.4,,,2960,1019.61,185.90,2.18,1.00,1.87,
2006-09-15 20:30,15.8,,,2960,1019.73,258.50,0.92,1.00,0.62,
2006-09-15 21:00,15.5,,,2960,1019.79,241.20,0.94,1.00,0.56,
2006-09-15 21:30,15.4,,,2951,1019.67,192.20,1.92,1.00,1.46,
2006-09-15 22:00,15.3,,,2960,1019.61,203.80,2.06,1.00,1.78,
2006-09-15 22:30,15.1,,,2955,1019.42,198.90,1.62,1.00,1.39,
2006-09-15 23:00,15.3,,,2960,1019.30,242.40,1.55,1.00,1.40,
2006-09-15 23:30,15.3,,,2956,1019.36,291.20,1.24,1.00,1.10,
2006-09-16 00:00,15.1,,,2960,1019.48,320.40,1.13,1.00,0.88,
2006-09-16 00:30,15.3,,,2954,1019.55,7.89,0.90,1.00,0.54,
2006-09-16 01:00,15.3,,,2960,1019.48,226.00,1.80,1.00,1.63,
2006-09-16 01:30,14.9,,,2950,1019.42,223.10,1.24,1.00,0.94,
2006-09-16 02:00,14.6,,,2960,1019.48,242.40,1.00,1.00,0.82,
2006-09-16 02:30,14.4,,,2950,1019.55,258.90,1.42,1.00,1.11,
2006-09-16 03:00,14.4,,,2960,1019.61,230.10,1.80,1.00,1.43,
2006-09-16 03:30,14.4,,,2945,1019.61,254.00,1.60,1.00,1.46,
2006-09-16 04:00,14.6,,,2960,1019.55,277.20,3.04,1.00,2.76,
2006-09-16 04:30,14.9,,,2949,1019.55,285.10,2.38,1.00,1.96,
2006-09-16 05:00,14.9,,,2960,1019.61,299.70,1.92,1.00,1.30,
2006-09-16 05:30,14.5,,,2948,1019.24,227.80,1.13,1.00,0.90,
2006-09-16 06:00,14.5,,,2960,1019.12,241.30,2.75,1.00,2.39,
2006-09-16 06:30,14.8,,,2960,1018.99,259.00,1.98,1.00,1.69,
2006-09-16 07:00,14.6,,,2960,1018.87,277.20,2.85,1.00,2.36,
2006-09-16 07:30,14.7,,,2956,1018.44,274.70,2.19,1.00,1.76,
2006-09-16 08:00,15.0,,,2960,1018.38,275.60,1.81,1.00,1.46,
2006-09-16 08:30,14.9,,,2956,1018.32,312.80,1.15,1.00,0.87,
2006-09-16 09:00,14.7,,,2960,1018.32,213.90,1.42,1.00,0.89,
2006-09-16 09:30,14.5,,,2951,1018.14,225.10,3.14,1.00,2.58,
2006-09-16 10:00,14.5,,,2960,1018.20,234.80,2.61,1.00,2.20,
2006-09-16 10:30,14.4,,,2952,1018.32,214.80,2.69,1.00,2.06,
2006-09-16 11:00,14.4,,,2960,1018.56,260.00,1.72,1.00,1.44,
2006-09-16 11:30,15.1,,,2954,1018.75,323.50,2.33,1.00,1.80,
2006-09-16 12:00,15.7,,,2962,1018.75,330.50,2.66,1.00,2.00,
2006-09-16 12:30,16.2,,,2961,1018.81,335.60,1.27,1.00,1.04,
2006-09-16 13:00,16.7,,,2961,1018.99,342.40,0.76,1.00,0.52,
2006-09-16 13:30,15.9,,,2961,1018.87,34.08,1.25,1.00,1.04,
2006-09-16 14:00,16.2,,,2961,1018.69,76.60,1.36,1.00,0.74,
2006-09-16 14:30,16.9,,,2961,1018.75,285.30,0.60,1.00,0.42,
2006-09-16 15:00,17.6,,,2961,1018.75,179.10,0.87,1.00,0.49,
2006-09-16 15:30,16.8,,,2960,1018.32,178.20,2.36,1.00,1.88,
2006-09-16 16:00,16.4,,,2960,1018.01,200.00,2.30,1.00,1.80,
2006-09-16 16:30,16.5,,,2960,1017.77,193.00,3.33,1.00,2.55,
2006-09-16 17:00,16.8,,,2960,1017.52,193.30,2.86,1.00,2.14,
2006-09-16 17:30,17.2,,,2960,1017.16,209.60,2.15,1.00,1.86,
2006-09-16 18:00,16.9,,,2960,1017.16,201.90,3.59,1.00,3.01,
2006-09-16 18:30,17.1,,,2960,1016.73,204.80,3.21,1.00,2.48,
2006-09-16 19:00,17.0,,,2960,1016.36,206.10,3.59,1.00,2.96,
2006-09-16 19:30,17.1,,,2960,1016.18,209.90,3.79,1.00,3.24,
2006-09-16 20:00,16.6,,,2960,1016.05,224.00,4.47,1.00,3.71,
2006-09-16 20:30,16.7,,,2960,1015.81,239.20,3.29,1.00,2.60,
2006-09-16 21:00,16.8,,,2960,1015.50,237.40,4.71,1.00,3.78,
2006-09-16 21:30,17.0,,,2960,1015.50,229.40,3.69,1.00,3.33,
2006-09-16 22:00,16.5,,,2960,1015.50,217.40,2.95,1.00,2.51,
2006-09-16 22:30,16.4,,,2956,1015.44,225.60,3.34,1.00,2.97,
2006-09-16 23:00,16.3,,,2960,1015.32,226.60,4.12,1.00,3.55,
2006-09-16 23:30,16.0,,,2952,1015.26,221.20,3.08,1.00,2.59,
2006-09-17 00:00,15.6,,,2960,1015.38,216.20,2.09,1.00,1.73,
2006-09-17 00:30,16.0,,,2945,1015.62,217.50,3.21,1.00,2.62,
2006-09-17 01:00,15.7,,,2960,1015.69,219.60,2.57,1.00,2.14,
2006-09-17 01:30,15.7,,,2947,1015.56,237.40,1.20,1.00,1.00,
2006-09-17 02:00,15.8,,,2960,1015.75,203.60,1.63,1.00,1.34,
2006-09-17 02:30,15.7,,,2948,1015.81,227.30,1.21,1.00,0.92,
2006-09-17 03:00,15.3,,,2960,1015.93,170.70,2.17,1.00,1.70,
2006-09-17 03:30,14.9,,,2947,1015.81,195.50,1.16,1.00,0.91,
2006-09-17 04:00,14.9,,,2960,1015.56,228.20,1.29,1.00,0.98,
2006-09-17 04:30,14.9,,,2944,1015.50,328.60,2.41,1.00,1.69,
2006-09-17 05:00,15.7,,,2960,1015.38,355.53,3.19,1.00,2.48,
2006-09-17 05:30,15.6,,,2948,1015.07,357.04,2.39,1.00,2.09,
2006-09-17 06:00,15.7,,,2960,1014.89,4.09,2.40,1.00,2.05,
2006-09-17 06:30,15.7,,,2948,1014.83,349.18,2.17,1.00,1.69,
2006-09-17 07:00,15.8,,,2960,1014.58,353.08,2.88,1.00,2.51,
2006-09-17 07:30,15.8,,,2950,1014.40,359.13,2.69,1.00,2.39,
2006-09-17 08:00,15.7,,,2960,1014.28,9.23,2.25,1.00,1.89,
2006-09-17 08:30,15.5,,,2948,1014.40,354.27,1.77,1.00,1.46,
2006-09-17 09:00,15.5,,,2960,1014.28,1.09,1.84,1.00,1.57,
2006-09-17 09:30,15.6,,,2948,1014.16,5.52,2.38,1.00,2.14,
2006-09-17 10:00,15.5,,,2960,1014.34,8.96,2.86,1.00,2.55,
2006-09-17 10:30,15.3,,,2947,1014.46,1.85,1.94,1.00,1.59,
2006-09-17 11:00,15.3,,,2960,1014.46,335.50,2.08,1.00,1.81,
2006-09-17 11:30,15.6,,,2948,1014.34,315.10,1.47,1.00,1.12,
2006-09-17 12:00,15.7,,,2877,1014.34,239.60,1.19,1.00,1.02,
2006-09-17 12:30,16.3,,,2961,1014.40,297.80,1.39,1.00,1.16,
2006-09-17 13:00,17.0,,,2961,1014.77,312.20,2.05,1.00,1.71,
2006-09-17 13:30,16.4,,,2961,1014.58,353.72,1.70,1.00,1.28,
2006-09-17 14:00,17.8,,,2961,1014.58,328.70,1.95,1.00,1.32,
2006-09-17 14:30,18.0,,,2961,1014.40,326.80,1.77,1.00,1.32,
2006-09-17 15:00,18.4,,,2960,1014.16,324.50,1.15,1.00,0.76,
2006-09-17 15:30,18.7,,,2960,1014.03,282.60,1.38,1.00,0.85,
2006-09-17 16:00,19.1,,,2960,1013.60,140.10,1.20,1.00,0.84,
2006-09-17 16:30,19.2,,,2960,1013.54,160.70,2.13,1.00,1.75,
2006-09-17 17:00,18.2,,,2960,1013.18,182.40,2.83,1.00,2.55,
2006-09-17 17:30,17.5,,,2949,1012.63,180.00,4.13,1.00,3.43,
2006-09-17 18:00,17.5,,,2957,1012.38,181.90,3.91,1.00,3.38,
2006-09-17 18:30,17.5,,,2956,1012.14,185.70,4.67,1.00,4.00,
2006-09-17 19:00,17.0,,,2915,1011.71,185.90,4.81,1.00,3.65,
2006-09-17 19:30,16.9,,,2827,1011.59,190.20,4.59,1.00,3.87,
2006-09-17 20:00,16.7,,,2960,1011.16,194.80,4.95,1.00,4.10,
2006-09-17 20:30,16.4,,,2959,1011.04,202.20,6.35,1.00,5.58,
2006-09-17 21:00,16.4,,,2960,1010.97,201.00,5.71,1.00,5.07,
2006-09-17 21:30,16.3,,,2955,1010.55,205.70,5.91,1.00,5.12,
2006-09-17 22:00,16.0,,,2960,1010.24,204.10,6.48,1.00,5.80,
2006-09-17 22:30,16.2,,,2945,1010.30,222.80,3.79,1.00,2.89,
2006-09-17 23:00,16.1,,,2960,1010.97,235.60,5.71,1.00,4.71,
2006-09-17 23:30,16.1,,,2947,1010.73,214.60,5.38,1.00,4.78,
2006-09-18 00:00,15.9,,,2960,1011.16,223.80,5.25,1.00,4.43,
2006-09-18 00:30,15.7,,,2957,1011.16,226.30,3.13,1.00,2.67,
2006-09-18 01:00,15.7,,,2960,1010.91,215.90,4.39,1.00,3.66,
2006-09-18 01:30,15.5,,,2954,1010.67,208.50,4.98,1.00,4.37,
2006-09-18 02:00,15.5,,,2960,1010.67,214.80,5.19,1.00,4.50,
2006-09-18 02:30,15.9,,,2954,1010.79,221.10,5.55,1.00,4.86,
2006-09-18 03:00,15.8,,,2960,1011.22,216.80,4.09,1.00,3.58,
2006-09-18 03:30,15.9,,,2954,1011.46,227.50,3.42,1.00,2.41,
2006-09-18 04:00,16.3,,,2960,1011.59,261.60,4.25,1.00,3.48,
2006-09-18 04:30,16.1,,,2958,1011.22,229.50,3.43,1.00,3.16,
2006-09-18 05:00,16.2,,,2960,1010.73,232.40,2.86,1.00,2.37,
2006-09-18 05:30,16.0,,,2958,1010.55,197.00,3.25,1.00,2.81,
2006-09-18 06:00,15.9,,,2960,1010.18,195.10,4.37,1.00,3.86,
2006-09-18 06:30,15.9,,,2956,1010.06,208.80,4.22,1.00,3.72,
2006-09-18 07:00,15.7,,,2960,1009.94,202.70,4.03,1.00,3.34,
2006-09-18 07:30,15.3,,,2950,1010.18,202.50,2.99,1.00,2.59,
2006-09-18 08:00,15.3,,,2960,1010.06,214.90,3.69,1.00,3.05,
2006-09-18 08:30,15.2,,,2951,1010.24,202.40,3.05,1.00,2.47,
2006-09-18 09:00,15.2,,,2951,1010.42,218.90,3.23,1.00,1.91,
2006-09-18 09:30,15.0,,,2915,1010.55,240.80,2.35,1.00,1.74,
2006-09-18 10:00,14.6,,, 292,1010.61,234.20,2.45,1.00,1.64,
2006-09-18 10:30,14.5,,,2020,1011.04,222.40,2.00,1.00,1.46,
2006-09-18 11:00,14.2,,, 448,1011.40,221.80,2.71,1.00,2.16,
2006-09-18 11:30,14.1,,, 478,1011.52,219.20,3.09,1.00,2.66,
2006-09-18 12:00,14.3,,,1641,1011.10,197.90,2.56,1.00,2.10,
2006-09-18 12:30,14.8,,,2961,1011.16,236.60,2.20,1.00,1.68,
2006-09-18 13:00,15.6,,,2960,1011.28,193.50,0.99,1.00,0.75,
2006-09-18 13:30,16.1,,,2961,1011.52,155.80,1.16,1.00,0.91,
2006-09-18 14:00,15.5,,,2961,1011.59,149.30,2.61,1.00,1.95,
2006-09-18 14:30,15.8,,,2956,1011.71,174.40,2.11,1.00,1.51,
2006-09-18 15:00,15.3,,,2912,1011.40,173.80,3.93,1.00,3.41,
2006-09-18 15:30,15.7,,,2954,1011.22,189.80,4.08,1.00,3.06,
2006-09-18 16:00,14.8,,,2300,1010.97,191.60,4.62,1.00,3.98,
2006-09-18 16:30,14.7,,, 327,1010.85,187.80,4.36,1.00,3.69,
2006-09-18 17:00,14.6,,, 503,1010.91,185.20,4.32,1.00,3.67,
2006-09-18 17:30,14.6,,, 940,1010.79,179.70,3.89,1.00,3.25,
2006-09-18 18:00,14.9,,, 234,1010.61,178.60,4.81,1.00,3.91,
2006-09-18 18:30,15.4,,,1130,1010.42,176.30,3.98,1.00,3.36,
2006-09-18 19:00,15.9,,,2804,1010.30,197.90,5.23,1.00,4.46,
2006-09-18 19:30,16.1,,,2816,1010.18,197.90,5.51,1.00,4.73,
2006-09-18 20:00,15.9,,,2777,1009.94,192.40,6.37,1.00,5.25,
2006-09-18 20:30,15.9,,,2881,1009.75,194.30,7.10,1.00,6.31,
2006-09-18 21:00,14.9,,, 386,1009.51,197.10,7.45,1.00,6.70,
2006-09-18 21:30,14.7,,, 297,1009.51,201.00,6.34,1.00,5.57,
2006-09-18 22:00,14.6,,, 479,1009.39,203.70,5.32,1.00,4.75,
2006-09-18 22:30,14.7,,, 392,1009.39,202.00,6.57,1.00,5.17,
2006-09-18 23:00,14.8,,,1969,1009.45,208.60,5.43,1.00,4.77,
2006-09-18 23:30,15.1,,, 464,1009.45,196.40,5.41,1.00,4.75,
2006-09-19 00:00,15.0,,, 214,1009.63,197.60,3.54,1.00,2.91,
2006-09-19 00:30,15.1,,,1890,1009.57,193.00,3.33,1.00,2.90,
2006-09-19 01:00,15.6,,,2945,1009.69,227.60,4.26,1.00,3.36,
2006-09-19 01:30,15.9,,,2902,1009.45,207.10,5.41,1.00,4.48,
2006-09-19 02:00,15.8,,,2959,1009.39,218.10,4.99,1.00,4.19,
2006-09-19 02:30,16.2,,,2902,1009.32,217.60,6.72,1.00,5.86,
2006-09-19 03:00,15.9,,,2883,1009.14,216.60,5.75,1.00,4.72,
2006-09-19 03:30,15.8,,,2791,1008.96,210.70,4.73,1.00,4.26,
2006-09-19 04:00,15.7,,,2862,1008.90,202.90,5.16,1.00,4.53,
2006-09-19 04:30,15.8,,,2901,1008.90,197.50,5.53,1.00,4.79,
2006-09-19 05:00,15.5,,,2942,1008.84,190.10,5.70,1.00,5.08,
2006-09-19 05:30,15.5,,,2864,1008.65,190.00,5.95,1.00,5.39,
2006-09-19 06:00,15.4,,,2874,1008.71,190.60,5.86,1.00,4.93,
2006-09-19 06:30,15.3,,,2760,1008.65,191.60,5.24,1.00,4.56,
2006-09-19 07:00,15.4,,,2824,1008.41,196.40,5.21,1.00,4.53,
2006-09-19 07:30,15.6,,,2839,1008.16,201.90,6.99,1.00,5.73,
2006-09-19 08:00,15.5,,,2886,1008.10,213.10,6.37,1.00,5.50,
2006-09-19 08:30,15.6,,,2896,1008.10,210.40,5.60,1.00,4.65,
2006-09-19 09:00,15.4,,,2897,1008.16,207.40,5.29,1.00,4.56,
2006-09-19 09:30,15.6,,,2906,1008.29,213.60,6.51,1.00,5.15,
2006-09-19 10:00,15.4,,,2938,1008.29,210.80,6.51,1.00,5.41,
2006-09-19 10:30,15.5,,,2905,1008.35,217.10,5.68,1.00,4.74,
2006-09-19 11:00,15.4,,,2883,1008.29,212.70,6.02,1.00,4.94,
2006-09-19 11:30,15.6,,,2567,1008.29,202.60,5.78,1.00,4.99,
2006-09-19 12:00,15.5,,,2662,1008.29,202.00,6.42,1.00,4.87,
2006-09-19 12:30,15.4,,,2844,1008.16,194.70,5.80,1.00,4.69,
2006-09-19 13:00,15.5,,,2957,1008.35,199.70,6.16,1.00,5.17,
2006-09-19 13:30,15.6,,,2936,1008.29,202.80,5.70,1.00,4.89,
2006-09-19 14:00,15.7,,,2955,1008.22,206.10,5.97,1.00,5.01,
2006-09-19 14:30,15.5,,, 723,1008.04,217.10,6.91,1.00,5.90,
2006-09-19 15:00,15.4,,, 316,1007.98,219.00,6.16,1.00,5.20,
2006-09-19 15:30,15.5,,, 386,1008.04,212.80,6.12,1.00,4.78,
2006-09-19 16:00,15.4,,, 311,1007.92,202.50,6.89,1.00,5.74,
2006-09-19 16:30,15.4,,, 337,1007.98,201.60,6.15,1.00,5.44,
2006-09-19 17:00,15.3,,, 315,1007.86,197.40,6.25,1.00,4.90,
2006-09-19 17:30,15.0,,, 294,1007.49,174.10,4.24,1.00,3.41,
2006-09-19 18:00,15.0,,, 243,1007.43,182.60,5.29,1.00,4.21,
2006-09-19 18:30,14.9,,, 442,1007.37,198.60,4.06,1.00,3.60,
2006-09-19 19:00,14.9,,, 228,1006.94,179.30,4.87,1.00,4.12,
2006-09-19 19:30,14.9,,, 295,1006.88,174.40,4.42,1.00,3.85,
2006-09-19 20:00,14.7,,, 309,1007.00,209.00,2.59,1.00,2.31,
2006-09-19 20:30,14.7,,, 269,1006.82,188.80,2.29,1.00,2.00,
2006-09-19 21:00,14.8,,, 231,1006.33,168.70,2.56,1.00,1.74,
2006-09-19 21:30,15.0,,, 263,1006.33,194.20,3.22,1.00,2.37,
2006-09-19 22:00,15.0,,, 255,1006.15,164.60,2.70,1.00,2.08,
2006-09-19 22:30,15.1,,, 384,1006.09,171.90,3.32,1.00,2.81,
2006-09-19 23:00,15.0,,, 613,1005.84,142.10,3.58,1.00,2.89,
2006-09-19 23:30,15.1,,, 613,1005.54,154.60,4.63,1.00,4.06,
2006-09-20 00:00,15.0,,, 661,1005.54,149.40,3.61,1.00,3.06,
2006-09-20 00:30,15.1,,, 468,1005.35,174.30,3.25,1.00,2.68,
2006-09-20 01:00,15.0,,, 356,1005.23,194.90,1.99,1.00,1.17,
2006-09-20 01:30,15.2,,, 524,1004.99,175.90,4.17,1.00,3.07,
2006-09-20 02:00,15.0,,, 432,1004.80,216.20,1.42,1.00,0.86,
2006-09-20 02:30,15.1,,, 378,1004.56,202.80,3.37,1.00,2.23,
2006-09-20 03:00,15.2,,, 953,1004.44,182.70,2.33,1.00,1.27,
2006-09-20 03:30,15.1,,,1723,1004.19,124.90,2.38,1.00,1.48,
2006-09-20 04:00,15.2,,,2960,1003.95,144.10,3.10,1.00,2.20,
2006-09-20 04:30,15.1,,,2903,1003.64,152.30,2.34,1.00,1.49,
2006-09-20 05:00,15.0,,,2960,1003.34,136.50,2.74,1.00,2.31,
2006-09-20 05:30,15.0,,,2599,1003.16,159.40,3.07,1.00,2.38,
2006-09-20 06:00,15.1,,,2160,1002.61,151.40,2.88,1.00,2.11,
2006-09-20 06:30,15.1,,,1283,1002.30,217.60,1.16,1.00,0.86,
2006-09-20 07:00,15.0,,,2201,1002.36,196.80,2.26,1.00,1.59,
2006-09-20 07:30,15.1,,,2233,1002.24,245.30,2.07,1.00,1.74,
2006-09-20 08:00,15.1,,, 538,1001.69,13.40,1.59,1.00,1.23,
2006-09-20 08:30,14.7,,,1352,1001.20,99.50,1.89,1.00,1.63,
2006-09-20 09:00,14.7,,,2097,1001.20,9.41,2.39,1.00,1.67,
2006-09-20 09:30,14.7,,,2008,1001.14,3.84,4.68,1.00,3.97,
2006-09-20 10:00,14.5,,,2803,1000.72,12.76,8.50,1.00,6.54,
2006-09-20 10:30,14.5,,,2864,1000.53,356.50,10.20,1.00,8.21,
2006-09-20 11:00,14.2,,,1757,1000.41,357.32,7.34,1.00,6.02,
2006-09-20 11:30,14.2,,,2745,1000.35,355.38,8.79,1.00,7.10,
2006-09-20 12:00,14.4,,,2960,1000.47,5.31,7.53,1.00,6.51,
2006-09-20 12:30,14.5,,,2894,1000.47,17.52,7.51,1.00,6.31,
2006-09-20 13:00,14.4,,,2960,1000.47,4.76,6.00,1.00,5.06,
2006-09-20 13:30,14.5,,,2898,1000.53,8.97,6.20,1.00,5.24,
2006-09-20 14:00,14.5,,,2960,1000.66,9.49,4.92,1.00,4.01,
2006-09-20 14:30,14.5,,,2898,1000.66,349.84,3.78,1.00,3.04,
2006-09-20 15:00,14.7,,,2960,1000.53,333.90,4.42,1.00,3.67,
2006-09-20 15:30,15.1,,,2898,1000.35,5.67,1.99,1.00,1.63,
2006-09-20 16:00,15.5,,,2961,1000.17,16.76,2.42,1.00,2.09,
2006-09-20 16:30,15.2,,,2936,1000.11,39.74,2.52,1.00,2.12,
2006-09-20 17:00,15.7,,,2961,1000.23,9.46,1.42,1.00,1.09,
2006-09-20 17:30,16.4,,,2961,1000.05,205.80,1.26,1.00,0.77,
2006-09-20 18:00,17.9,,,2961,999.92,191.00,1.77,1.00,0.96,
2006-09-20 18:30,16.1,,,2961,999.92,186.00,2.97,1.00,2.36,
2006-09-20 19:00,15.7,,,2960,1000.05,173.20,3.42,1.00,2.81,
2006-09-20 19:30,16.0,,,2955,1000.11,168.60,4.07,1.00,3.23,
2006-09-20 20:00,16.0,,,2960,1000.11,176.10,3.36,1.00,2.62,
2006-09-20 20:30,18.7,,,2960,1000.23,208.60,1.65,1.00,0.69,
2006-09-20 21:00,18.5,,,1542,1000.29,281.00,4.61,1.00,4.01,
2006-09-20 21:30,17.7,,,2251,1000.59,271.00,3.33,1.00,2.76,
2006-09-20 22:00,18.1,,, 300,1000.78,286.40,4.75,1.00,4.03,
2006-09-20 22:30,16.6,,,2874,1001.14,242.90,4.26,1.00,2.65,
2006-09-20 23:00,15.9,,,2960,1001.33,239.50,6.00,1.00,4.68,
2006-09-20 23:30,15.4,,,2956,1001.69,242.30,3.77,1.00,3.36,
2006-09-21 00:00,15.0,,,2960,1002.00,234.30,3.82,1.00,3.30,
2006-09-21 00:30,14.9,,,2954,1002.30,236.30,2.95,1.00,2.58,
2006-09-21 01:00,14.6,,,2960,1002.73,254.10,2.93,1.00,2.52,
2006-09-21 01:30,14.4,,,2957,1002.97,259.40,2.80,1.00,2.56,
2006-09-21 02:00,14.6,,,2960,1003.09,252.90,3.48,1.00,3.08,
2006-09-21 02:30,14.2,,,2956,1003.40,260.20,3.25,1.00,2.89,
2006-09-21 03:00,15.0,,,2960,1003.77,279.60,3.45,1.00,2.79,
2006-09-21 03:30,14.7,,,2956,1003.95,267.90,3.12,1.00,2.67,
2006-09-21 04:00,14.3,,,2960,1004.07,263.90,3.09,1.00,2.14,
2006-09-21 04:30,14.2,,,2957,1004.25,262.60,2.56,1.00,1.87,
2006-09-21 05:00,14.1,,,2960,1004.38,289.00,2.18,1.00,1.55,
2006-09-21 05:30,14.4,,,2960,1004.62,280.70,2.06,1.00,1.46,
2006-09-21 06:00,14.3,,,2960,1005.05,282.40,3.15,1.00,2.63,
2006-09-21 06:30,13.9,,,2950,1005.23,273.20,3.73,1.00,2.67,
2006-09-21 07:00,14.1,,,2960,1005.23,284.30,6.85,1.00,5.22,
2006-09-21 07:30,14.3,,,2960,1005.48,287.30,7.98,1.00,6.50,
2006-09-21 08:00,13.8,,,2960,1005.84,274.50,6.87,1.00,5.36,
2006-09-21 08:30,13.6,,,2957,1006.09,281.90,7.43,1.00,6.17,
2006-09-21 09:00,13.1,,,2960,1006.45,285.10,7.74,1.00,6.45,
2006-09-21 09:30,13.0,,,2951,1007.00,291.90,9.55,1.00,7.44,
2006-09-21 10:00,12.8,,,2960,1007.55,289.30,9.12,1.00,7.09,
2006-09-21 10:30,12.4,,,2945,1007.98,289.50,10.44,1.00,7.94,
2006-09-21 11:00,12.0,,,2832,1008.53,302.00,11.31,1.00,8.88,
2006-09-21 11:30,11.8,,,2928,1009.14,301.60,11.61,1.00,9.70,
2006-09-21 12:00,11.6,,,2567,1009.69,304.20,9.21,1.00,7.11,
2006-09-21 12:30,11.9,,,2948,1010.12,303.20,10.17,1.00,7.04,
2006-09-21 13:00,12.0,,,2961,1010.49,307.90,9.63,1.00,7.64,
2006-09-21 13:30,12.3,,,2948,1010.85,310.20,9.53,1.00,7.43,
2006-09-21 14:00,12.4,,,2961,1011.34,320.90,9.31,1.00,7.61,
2006-09-21 14:30,12.5,,,2954,1011.65,309.90,8.88,1.00,6.81,
2006-09-21 15:00,13.0,,,2961,1011.95,312.50,9.88,1.00,7.85,
2006-09-21 15:30,13.1,,,2929,1012.01,313.30,8.83,1.00,6.63,
2006-09-21 16:00,13.2,,,2961,1012.14,313.00,8.35,1.00,6.70,
2006-09-21 16:30,13.3,,,2549,1012.38,286.70,7.25,1.00,5.26,
2006-09-21 17:00,13.6,,,2654,1012.38,311.40,9.74,1.00,6.87,
2006-09-21 17:30,13.7,,,2474,1012.44,307.20,7.94,1.00,6.19,
2006-09-21 18:00,14.0,,,2492,1012.56,305.30,8.69,1.00,6.66,
2006-09-21 18:30,14.4,,,2577,1012.81,318.50,8.15,1.00,6.28,
2006-09-21 19:00,14.6,,,2728,1012.99,306.30,8.39,1.00,6.48,
2006-09-21 19:30,15.0,,,2827,1013.42,304.50,6.65,1.00,4.78,
2006-09-21 20:00,15.3,,,2944,1013.67,304.90,8.82,1.00,6.03,
2006-09-21 20:30,15.2,,,2802,1013.91,298.80,10.82,1.00,8.19,
2006-09-21 21:00,15.2,,,2822,1014.28,304.30,10.14,1.00,7.41,
2006-09-21 21:30,15.0,,,2895,1014.65,316.20,7.38,1.00,5.60,
2006-09-21 22:00,15.3,,,2960,1015.01,304.90,5.23,1.00,3.97,
2006-09-21 22:30,14.7,,,2775,1015.38,296.00,4.81,1.00,3.80,
2006-09-21 23:00,14.3,,,2960,1015.87,280.00,3.13,1.00,2.57,
2006-09-21 23:30,14.2,,,2960,1016.11,280.30,4.13,1.00,3.38,
2006-09-22 00:00,13.9,,,2960,1016.42,263.50,3.22,1.00,2.72,
2006-09-22 00:30,13.6,,,2959,1016.73,273.70,3.04,1.00,2.72,
2006-09-22 01:00,13.7,,,2960,1016.91,253.50,3.93,1.00,3.44,
2006-09-22 01:30,13.4,,,2960,1017.16,249.60,5.31,1.00,4.14,
2006-09-22 02:00,13.3,,,2960,1017.40,249.70,4.67,1.00,3.66,
2006-09-22 02:30,13.0,,,2959,1017.40,249.00,3.93,1.00,3.57,
2006-09-22 03:00,13.3,,,2960,1017.65,260.20,4.13,1.00,3.56,
2006-09-22 03:30,13.0,,,2958,1018.01,260.30,3.91,1.00,3.42,
2006-09-22 04:00,11.9,,,2960,1018.26,289.00,5.15,1.00,4.28,
2006-09-22 04:30,11.8,,,2957,1018.26,258.70,5.74,1.00,4.54,
2006-09-22 05:00,12.2,,,2960,1018.20,266.30,6.40,1.00,5.09,
2006-09-22 05:30,11.9,,,2959,1018.38,280.50,4.92,1.00,4.09,
2006-09-22 06:00,12.2,,,2960,1018.44,267.70,5.06,1.00,4.40,
2006-09-22 06:30,11.8,,,2956,1018.50,257.60,4.58,1.00,4.22,
2006-09-22 07:00,10.9,,,2960,1018.63,264.50,5.08,1.00,4.17,
2006-09-22 07:30,11.1,,,2950,1018.75,286.00,6.03,1.00,5.34,
2006-09-22 08:00,11.0,,,2960,1018.87,285.30,6.29,1.00,5.56,
2006-09-22 08:30,11.3,,,2951,1018.93,292.60,5.52,1.00,4.83,
2006-09-22 09:00,12.6,,,2960,1019.12,308.60,6.62,1.00,5.74,
2006-09-22 09:30,11.6,,,2959,1019.36,293.90,5.35,1.00,4.62,
2006-09-22 10:00,11.4,,,2960,1019.67,283.10,5.86,1.00,4.85,
2006-09-22 10:30,11.4,,,2946,1020.34,294.50,5.26,1.00,4.53,
2006-09-22 11:00,11.5,,,2960,1020.65,316.90,5.17,1.00,4.38,
2006-09-22 11:30,12.1,,,2956,1020.89,308.70,7.33,1.00,5.68,
2006-09-22 12:00,12.3,,,2961,1020.71,339.80,7.77,1.00,6.62,
2006-09-22 12:30,12.3,,,2957,1021.02,341.80,6.60,1.00,5.31,
2006-09-22 13:00,12.6,,,2961,1021.32,333.70,5.90,1.00,4.59,
2006-09-22 13:30,13.2,,,2955,1021.51,311.40,7.83,1.00,6.28,
2006-09-22 14:00,13.6,,,2961,1021.45,306.80,8.54,1.00,6.45,
2006-09-22 14:30,13.8,,,2961,1021.20,319.20,7.78,1.00,6.22,
2006-09-22 15:00,14.3,,,2961,1020.77,296.70,7.91,1.00,5.88,
2006-09-22 15:30,14.8,,,2961,1020.34,300.80,8.80,1.00,6.48,
2006-09-22 16:00,14.9,,,2961,1020.40,286.40,10.00,1.00,7.75,
2006-09-22 16:30,15.0,,,2819,1020.46,297.60,9.35,1.00,6.51,
2006-09-22 17:00,15.3,,,2311,1020.16,301.20,9.37,1.00,6.83,
2006-09-22 17:30,15.5,,,2752,1019.91,311.30,8.49,1.00,6.14,
2006-09-22 18:00,15.9,,,2643,1019.73,297.10,6.85,1.00,5.52,
2006-09-22 18:30,16.2,,,2961,1019.55,302.20,7.05,1.00,5.10,
2006-09-22 19:00,16.4,,,2961,1019.42,302.00,5.86,1.00,4.21,
2006-09-22 19:30,16.2,,,2961,1019.30,300.20,6.29,1.00,4.86,
2006-09-22 20:00,16.2,,,2961,1019.42,285.90,7.62,1.00,5.36,
2006-09-22 20:30,16.3,,,2961,1019.36,285.60,6.44,1.00,5.20,
2006-09-22 21:00,15.6,,,2961,1019.24,248.10,4.45,1.00,2.78,
2006-09-22 21:30,14.7,,,2959,1019.48,213.20,5.48,1.00,4.66,
2006-09-22 22:00,14.6,,,2960,1019.48,222.90,8.33,1.00,5.97,
2006-09-22 22:30,14.4,,,2946,1019.42,233.20,6.88,1.00,5.97,
2006-09-22 23:00,14.4,,,2960,1019.42,229.00,6.26,1.00,5.13,
2006-09-22 23:30,14.3,,,2945,1019.55,220.00,5.48,1.00,4.71,
2006-09-23 00:00,14.2,,,2960,1019.79,229.70,6.39,1.00,5.53,
2006-09-23 00:30,14.2,,,2936,1019.79,236.80,5.11,1.00,4.36,
2006-09-23 01:00,14.1,,,2960,1019.73,243.30,4.88,1.00,4.13,
2006-09-23 01:30,14.1,,,2934,1019.61,232.30,4.42,1.00,3.85,
2006-09-23 02:00,14.2,,,2960,1019.48,223.80,4.00,1.00,3.37,
2006-09-23 02:30,14.2,,,2928,1019.36,210.40,4.09,1.00,3.59,
2006-09-23 03:00,14.2,,,2960,1019.12,209.20,3.50,1.00,2.85,
2006-09-23 03:30,14.1,,,2919,1018.87,210.30,3.04,1.00,2.55,
2006-09-23 04:00,14.1,,,2960,1018.93,213.10,3.14,1.00,2.78,
2006-09-23 04:30,14.1,,,2919,1018.69,197.90,2.43,1.00,2.06,
2006-09-23 05:00,14.1,,,2960,1018.26,160.60,2.29,1.00,1.97,
2006-09-23 05:30,14.4,,,2927,1018.07,152.40,2.60,1.00,2.06,
2006-09-23 06:00,14.3,,,2960,1018.14,131.60,2.04,1.00,1.54,
2006-09-23 06:30,14.4,,,2925,1017.71,157.60,3.32,1.00,2.64,
2006-09-23 07:00,14.6,,,2960,1017.46,167.20,4.62,1.00,3.86,
2006-09-23 07:30,14.5,,,2924,1017.03,172.50,4.32,1.00,3.64,
2006-09-23 08:00,14.7,,,2960,1016.97,195.40,4.29,1.00,3.56,
2006-09-23 08:30,14.6,,,2918,1016.54,189.90,4.20,1.00,3.48,
2006-09-23 09:00,14.7,,,2960,1016.73,213.30,4.88,1.00,4.03,
2006-09-23 09:30,14.7,,,2921,1016.18,193.60,5.24,1.00,4.52,
2006-09-23 10:00,14.6,,,2960,1016.48,206.10,6.34,1.00,5.22,
2006-09-23 10:30,14.6,,,2919,1016.42,206.70,6.21,1.00,5.08,
2006-09-23 11:00,14.7,,,2960,1015.93,195.00,5.43,1.00,4.57,
2006-09-23 11:30,14.6,,,2918,1015.81,189.80,5.74,1.00,4.94,
2006-09-23 12:00,14.7,,,2960,1015.20,189.20,6.86,1.00,5.66,
2006-09-23 12:30,14.9,,,2924,1014.77,192.60,7.16,1.00,6.14,
2006-09-23 13:00,14.9,,,2960,1014.77,188.20,8.04,1.00,6.70,
2006-09-23 13:30,14.7,,,2919,1014.52,178.40,8.05,1.00,6.52,
2006-09-23 14:00,14.8,,,2862,1013.73,178.00,9.16,1.00,7.77,
2006-09-23 14:30,14.9,,,2909,1013.24,180.90,9.77,1.00,7.97,
2006-09-23 15:00,14.8,,,2858,1012.81,181.40,10.81,1.00,8.60,
2006-09-23 15:30,14.6,,,2173,1012.69,178.90,9.26,1.00,7.66,
2006-09-23 16:00,14.6,,,2704,1011.77,174.90,9.22,1.00,7.55,
2006-09-23 16:30,14.5,,,2118,1011.40,169.10,8.13,1.00,6.83,
2006-09-23 17:00,14.4,,,1771,1010.67,167.80,9.25,1.00,7.42,
2006-09-23 17:30,14.3,,,1615,1009.39,167.10,8.34,1.00,6.58,
2006-09-23 18:00,14.1,,,1280,1008.96,164.90,5.62,1.00,4.37,